Columbia Airport, CA

6:48 PM PST on December 13, 2019 (GMT -0800)
Columbia Airport

Weather History for KO22 - August, 2019

Change the Weather History Date:

Friday, August 30, 2019

  Actual Average (KMOD) Record (KMOD)
Temperature  
Mean Temperature 76 °F -  
Max Temperature 93 °F 89 °F 106 °F (1988)
Min Temperature 60 °F 58 °F 46 °F (1957)
Cooling Degree Days 12    
Growing Degree Days 26 (Base 50)    
Moisture  
Dew Point 54 °F    
Average Humidity 52    
Maximum Humidity 82    
Minimum Humidity 24    
Precipitation  
Precipitation 0.00 in - - ()
Sea Level Pressure  
Sea Level Pressure 30.03 in    
Wind  
Wind Speed 2 mph (SW)    
Max Wind Speed 8 mph    
Max Gust Speed 12 mph    
Visibility 10 miles    
Events      
Averages and records for this station are not official NWS values.
T = Trace of Precipitation, MM = Missing Value Source: NWS Daily Summary

Daily Weather History Graph

Daily Weather History Graph

Search for Another Location

Airport or City:

Astronomy

Aug. 30, 2019 Rise Set
Actual Time 6:29 AM PDT 7:34 PM PDT
Civil Twilight 6:02 AM PDT 8:01 PM PDT
Nautical Twilight 5:30 AM PDT 8:33 PM PDT
Astronomical Twilight 4:56 AM PDT 9:06 PM PDT
Moon 6:37 AM PDT (8/30) 8:14 PM PDT (8/30)
Length of Visible Light 13h 58m
Length of Day
13h 04m
New Moon, 0% of the Moon is Illuminated
Aug 30
New Moon
Sep 5
First Quarter
Sep 13
Full
Sep 21
Last Quarter
Sep 28
New

Hourly Weather History & Observations

Time (PDT) Temp. Heat Index Dew Point Humidity Pressure Visibility Wind Dir Wind Speed Gust Speed Precip Events Conditions
12:15 AM 64.4 °F - 57.2 °F 77% 30.05 in 10.0 mi Calm Calm - N/A   Clear
12:35 AM 64.4 °F - 57.2 °F 77% 30.05 in 10.0 mi Calm Calm - N/A   Clear
12:55 AM 64.4 °F - 57.2 °F 77% 30.05 in 10.0 mi Calm Calm - N/A   Clear
1:35 AM 64.4 °F - 57.2 °F 77% 30.05 in 10.0 mi Calm Calm - N/A   Clear
1:55 AM 62.6 °F - 57.2 °F 82% 30.05 in 10.0 mi Calm Calm - N/A   Clear
2:15 AM 62.6 °F - 57.2 °F 82% 30.05 in 10.0 mi Calm Calm - N/A   Clear
2:35 AM 62.6 °F - 57.2 °F 82% 30.05 in 10.0 mi Calm Calm - N/A   Clear
2:55 AM 62.6 °F - 55.4 °F 77% 30.05 in 10.0 mi Calm Calm - N/A   Clear
3:15 AM 62.6 °F - 57.2 °F 82% 30.04 in 10.0 mi Calm Calm - N/A   Clear
3:35 AM 62.6 °F - 55.4 °F 77% 30.04 in 10.0 mi Calm Calm - N/A   Clear
3:55 AM 60.8 °F - 55.4 °F 82% 30.04 in 10.0 mi Calm Calm - N/A   Clear
4:15 AM 62.6 °F - 55.4 °F 77% 30.04 in 10.0 mi North - - N/A   Clear
4:35 AM 60.8 °F - 55.4 °F 82% 30.04 in 10.0 mi Calm Calm - N/A   Clear
4:55 AM 60.8 °F - 55.4 °F 82% 30.04 in 10.0 mi Calm Calm - N/A   Clear
5:15 AM 60.8 °F - 55.4 °F 82% 30.04 in 10.0 mi Calm Calm - N/A   Clear
5:35 AM 62.6 °F - 55.4 °F 77% 30.04 in 10.0 mi Calm Calm - N/A   Clear
5:55 AM 60.8 °F - 55.4 °F 82% 30.04 in 10.0 mi Calm Calm - N/A   Clear
6:15 AM 60.8 °F - 55.4 °F 82% 30.04 in 10.0 mi Calm Calm - N/A   Clear
6:35 AM 60.8 °F - 55.4 °F 82% 30.05 in 10.0 mi Calm Calm - N/A   Clear
6:55 AM 60.8 °F - 55.4 °F 82% 30.05 in 10.0 mi Calm Calm - N/A   Clear
7:15 AM 60.8 °F - 55.4 °F 82% 30.06 in 10.0 mi Calm Calm - N/A   Clear
7:35 AM 62.6 °F - 55.4 °F 77% 30.06 in 10.0 mi Calm Calm - N/A   Clear
7:55 AM 66.2 °F - 57.2 °F 73% 30.06 in 10.0 mi North - - N/A   Clear
8:15 AM 69.8 °F - 57.2 °F 64% 30.07 in 10.0 mi Calm Calm - N/A   Clear
8:35 AM 73.4 °F - 55.4 °F 53% 30.07 in 10.0 mi Calm Calm - N/A   Clear
8:55 AM 75.2 °F - 55.4 °F 50% 30.07 in 10.0 mi Calm Calm - N/A   Clear
9:15 AM 78.8 °F - 55.4 °F 44% 30.06 in 10.0 mi Calm Calm - N/A   Clear
9:35 AM 80.6 °F 80.5 °F 55.4 °F 42% 30.07 in 10.0 mi Calm Calm - N/A   Clear
9:55 AM 80.6 °F 80.5 °F 55.4 °F 42% 30.07 in 10.0 mi Variable 3.5 mph - N/A   Clear
10:15 AM 82.4 °F 81.4 °F 53.6 °F 37% 30.07 in 10.0 mi Variable 3.5 mph - N/A   Clear
10:35 AM 84.2 °F 83.0 °F 55.4 °F 37% 30.07 in 10.0 mi Variable 4.6 mph - N/A   Clear
10:55 AM 84.2 °F - 51.8 °F 33% 30.07 in 10.0 mi Variable 4.6 mph - N/A   Clear
11:15 AM 84.2 °F - 51.8 °F 33% 30.07 in 10.0 mi Variable 4.6 mph - N/A   Clear
11:35 AM 87.8 °F 85.7 °F 53.6 °F 31% 30.08 in 10.0 mi Variable 4.6 mph - N/A   Clear
12:15 PM 87.8 °F - 51.8 °F 29% 30.07 in 10.0 mi Variable 6.9 mph - N/A   Clear
12:35 PM 87.8 °F - 51.8 °F 29% 30.07 in 10.0 mi Variable 6.9 mph - N/A   Clear
12:55 PM 91.4 °F - 51.8 °F 26% 30.06 in 10.0 mi Variable 4.6 mph - N/A   Clear
1:15 PM 91.4 °F - 51.8 °F 26% 30.06 in 10.0 mi WSW 8.1 mph - N/A   Clear
1:35 PM 91.4 °F - 51.8 °F 26% 30.06 in 10.0 mi Variable 5.8 mph - N/A   Clear
1:55 PM 93.2 °F - 51.8 °F 24% 30.05 in 10.0 mi Variable 5.8 mph - N/A   Clear
2:15 PM 91.4 °F - 51.8 °F 26% 30.04 in 10.0 mi Variable 5.8 mph - N/A   Clear
2:35 PM 93.2 °F - 51.8 °F 24% 30.03 in 10.0 mi SW 5.8 mph - N/A   Clear
2:55 PM 93.2 °F - 51.8 °F 24% 30.03 in 10.0 mi Variable 6.9 mph - N/A   Clear
3:35 PM 93.2 °F - 51.8 °F 24% 30.02 in 10.0 mi Variable 6.9 mph - N/A   Clear
3:55 PM 93.2 °F - 51.8 °F 24% 30.02 in 10.0 mi Variable 6.9 mph - N/A   Clear
4:15 PM 91.4 °F - 51.8 °F 26% 30.01 in 10.0 mi Variable 8.1 mph - N/A   Clear
4:35 PM 91.4 °F - 51.8 °F 26% 30.00 in 10.0 mi Variable 6.9 mph - N/A   Clear
4:55 PM 91.4 °F - 51.8 °F 26% 30.00 in 10.0 mi Variable 6.9 mph - N/A   Clear
5:15 PM 91.4 °F - 51.8 °F 26% 29.99 in 10.0 mi Variable 5.8 mph 11.5 mph N/A   Clear
5:35 PM 89.6 °F - 50.0 °F 26% 29.99 in 10.0 mi Variable 6.9 mph - N/A   Clear
5:55 PM 89.6 °F - 50.0 °F 26% 29.99 in 10.0 mi Variable 5.8 mph - N/A   Clear
6:15 PM 87.8 °F - 51.8 °F 29% 29.99 in 10.0 mi Variable 6.9 mph - N/A   Clear
6:35 PM 87.8 °F 85.7 °F 53.6 °F 31% 29.99 in 10.0 mi Variable 5.8 mph - N/A   Clear
6:55 PM 86.0 °F - 51.8 °F 31% 30.00 in 10.0 mi SW 5.8 mph - N/A   Clear
7:15 PM 84.2 °F - 51.8 °F 33% 30.00 in 10.0 mi Variable 4.6 mph - N/A   Clear
7:35 PM 82.4 °F - 51.8 °F 35% 30.00 in 10.0 mi SSW 3.5 mph - N/A   Clear
7:55 PM 80.6 °F - 51.8 °F 37% 30.00 in 10.0 mi Calm Calm - N/A   Clear
8:15 PM 78.8 °F - 51.8 °F 39% 30.00 in 10.0 mi Calm Calm - N/A   Clear
8:35 PM 75.2 °F - 53.6 °F 47% 30.01 in 10.0 mi Calm Calm - N/A   Clear
8:55 PM 73.4 °F - 53.6 °F 50% 30.01 in 10.0 mi Variable 4.6 mph - N/A   Clear
9:15 PM 73.4 °F - 53.6 °F 50% 30.01 in 10.0 mi Variable 3.5 mph - N/A   Clear
9:35 PM 71.6 °F - 53.6 °F 53% 30.01 in 10.0 mi Calm Calm - N/A   Clear
9:55 PM 69.8 °F - 53.6 °F 56% 30.01 in 10.0 mi Calm Calm - N/A   Clear
10:15 PM 69.8 °F - 53.6 °F 56% 30.01 in 10.0 mi Calm Calm - N/A   Clear
10:35 PM 68.0 °F - 53.6 °F 60% 30.01 in 10.0 mi Calm Calm - N/A   Clear
10:55 PM 68.0 °F - 53.6 °F 60% 30.01 in 10.0 mi Calm Calm - N/A   Clear
11:15 PM 66.2 °F - 53.6 °F 64% 30.01 in 10.0 mi Calm Calm - N/A   Clear
11:35 PM 66.2 °F - 53.6 °F 64% 30.00 in 10.0 mi Calm Calm - N/A   Clear
11:55 PM 64.4 °F - 53.6 °F 68% 30.00 in 10.0 mi Calm Calm - N/A   Clear